Time,TemperatureF,DewpointF,PressureIn,WindDirection,WindDirectionDegrees,WindSpeedMPH,WindSpeedGustMPH,Humidity,HourlyPrecipIn,Conditions,Clouds,dailyrainin,SoftwareType,DateUTC
2013-09-27 00:14:00,66.3,62.0,29.89,SE,133,0.0,8.0,85,0.00,,,0.00,weatherlink.com 1.10,2013-09-27 05:14:00,
2013-09-27 00:29:00,66.4,62.0,29.89,SE,133,0.0,6.0,85,0.00,,,0.00,weatherlink.com 1.10,2013-09-27 05:29:00,
2013-09-27 00:44:00,66.1,62.0,29.89,SE,132,0.0,6.0,85,0.00,,,0.00,weatherlink.com 1.10,2013-09-27 05:44:00,
2013-09-27 00:59:00,65.9,62.0,29.89,SE,130,0.0,7.0,86,0.00,,,0.00,weatherlink.com 1.10,2013-09-27 05:59:00,
2013-09-27 01:14:00,65.8,62.0,29.89,SE,130,4.0,8.0,86,0.00,,,0.00,weatherlink.com 1.10,2013-09-27 06:14:00,
2013-09-27 01:29:00,65.6,62.0,29.89,SE,127,1.0,8.0,87,0.00,,,0.00,weatherlink.com 1.10,2013-09-27 06:29:00,
2013-09-27 01:44:00,65.4,62.0,29.90,SE,126,0.0,9.0,87,0.00,,,0.00,weatherlink.com 1.10,2013-09-27 06:44:00,
2013-09-27 01:59:00,65.5,62.0,29.89,SE,130,4.0,10.0,87,0.00,,,0.00,weatherlink.com 1.10,2013-09-27 06:59:00,
2013-09-27 02:14:00,65.6,62.0,29.90,ESE,123,4.0,11.0,87,0.00,,,0.00,weatherlink.com 1.10,2013-09-27 07:14:00,
2013-09-27 02:29:00,65.6,62.0,29.89,ESE,119,5.0,11.0,87,0.00,,,0.00,weatherlink.com 1.10,2013-09-27 07:29:00,
2013-09-27 02:44:00,65.4,62.0,29.89,SE,129,3.0,9.0,88,0.00,,,0.00,weatherlink.com 1.10,2013-09-27 07:44:00,
2013-09-27 02:59:00,65.2,62.0,29.89,SE,132,0.0,8.0,88,0.00,,,0.00,weatherlink.com 1.10,2013-09-27 07:59:00,
2013-09-27 03:14:00,65.3,62.0,29.89,SE,129,0.0,12.0,88,0.00,,,0.00,weatherlink.com 1.10,2013-09-27 08:14:00,
2013-09-27 03:29:00,65.0,61.0,29.89,SE,129,3.0,8.0,88,0.00,,,0.00,weatherlink.com 1.10,2013-09-27 08:29:00,
2013-09-27 03:44:00,65.0,62.0,29.89,SE,130,0.0,8.0,89,0.00,,,0.00,weatherlink.com 1.10,2013-09-27 08:44:00,
2013-09-27 03:59:00,64.9,62.0,29.88,SE,138,2.0,9.0,89,0.00,,,0.00,weatherlink.com 1.10,2013-09-27 08:59:00,
2013-09-27 04:14:00,64.8,62.0,29.89,SE,140,4.0,8.0,89,0.00,,,0.00,weatherlink.com 1.10,2013-09-27 09:14:00,
2013-09-27 04:29:00,64.6,61.0,29.89,SE,138,0.0,12.0,89,0.00,,,0.00,weatherlink.com 1.10,2013-09-27 09:29:00,
2013-09-27 04:44:00,64.5,62.0,29.89,SE,140,1.0,8.0,90,0.00,,,0.00,weatherlink.com 1.10,2013-09-27 09:44:00,
2013-09-27 04:59:00,64.5,62.0,29.89,SE,142,6.0,9.0,90,0.00,,,0.00,weatherlink.com 1.10,2013-09-27 09:59:00,
2013-09-27 05:14:00,64.5,62.0,29.89,SE,129,0.0,10.0,90,0.00,,,0.00,weatherlink.com 1.10,2013-09-27 10:14:00,
2013-09-27 05:29:00,64.7,62.0,29.89,SE,137,3.0,11.0,90,0.00,,,0.00,weatherlink.com 1.10,2013-09-27 10:29:00,
2013-09-27 05:44:00,65.0,62.0,29.89,SE,138,1.0,11.0,90,0.00,,,0.00,weatherlink.com 1.10,2013-09-27 10:44:00,
2013-09-27 05:59:00,65.0,62.0,29.89,SE,136,3.0,10.0,90,0.00,,,0.00,weatherlink.com 1.10,2013-09-27 10:59:00,
2013-09-27 06:14:00,64.9,62.0,29.89,SE,139,6.0,10.0,90,0.00,,,0.00,weatherlink.com 1.10,2013-09-27 11:14:00,
2013-09-27 06:29:00,64.9,62.0,29.89,SE,143,2.0,12.0,90,0.00,,,0.00,weatherlink.com 1.10,2013-09-27 11:29:00,
2013-09-27 06:44:00,65.1,62.0,29.90,SSE,148,0.0,10.0,90,0.00,,,0.00,weatherlink.com 1.10,2013-09-27 11:44:00,
2013-09-27 06:59:00,65.4,63.0,29.90,SE,133,0.0,13.0,90,0.00,,,0.00,weatherlink.com 1.10,2013-09-27 11:59:00,
2013-09-27 07:14:00,65.5,63.0,29.90,SE,140,2.0,15.0,90,0.00,,,0.00,weatherlink.com 1.10,2013-09-27 12:14:00,
2013-09-27 07:29:00,65.7,62.0,29.91,SE,132,0.0,12.0,89,0.00,,,0.00,weatherlink.com 1.10,2013-09-27 12:29:00,
2013-09-27 07:44:00,65.9,63.0,29.91,SSE,152,2.0,12.0,89,0.00,,,0.00,weatherlink.com 1.10,2013-09-27 12:44:00,
2013-09-27 07:59:00,66.2,63.0,29.90,SE,139,5.0,17.0,89,0.00,,,0.00,weatherlink.com 1.10,2013-09-27 12:59:00,
2013-09-27 08:14:00,66.7,63.0,29.91,SE,136,3.0,16.0,88,0.00,,,0.00,weatherlink.com 1.10,2013-09-27 13:14:00,
2013-09-27 08:29:00,67.4,64.0,29.91,SE,141,0.0,17.0,87,0.00,,,0.00,weatherlink.com 1.10,2013-09-27 13:29:00,
2013-09-27 08:44:00,68.6,64.0,29.91,SE,132,8.0,17.0,85,0.00,,,0.00,weatherlink.com 1.10,2013-09-27 13:44:00,
2013-09-27 08:59:00,69.9,65.0,29.91,SSE,159,6.0,10.0,83,0.00,,,0.00,weatherlink.com 1.10,2013-09-27 13:59:00,
2013-09-27 09:15:00,71.3,65.0,29.91,ESE,123,0.0,16.0,80,0.00,,,0.00,weatherlink.com 1.10,2013-09-27 14:15:00,
2013-09-27 09:30:00,72.5,65.0,29.91,SSW,196,0.0,12.0,78,0.00,,,0.00,weatherlink.com 1.10,2013-09-27 14:30:00,
2013-09-27 09:45:00,73.4,66.0,29.92,SSE,159,0.0,14.0,77,0.00,,,0.00,weatherlink.com 1.10,2013-09-27 14:45:00,
2013-09-27 10:00:00,74.6,65.0,29.91,South,169,7.0,16.0,73,0.00,,,0.00,weatherlink.com 1.10,2013-09-27 15:00:00,
2013-09-27 10:15:00,75.3,66.0,29.91,SE,126,2.0,18.0,73,0.00,,,0.00,weatherlink.com 1.10,2013-09-27 15:15:00,
2013-09-27 10:30:00,76.1,66.0,29.91,SSE,168,3.0,20.0,70,0.00,,,0.00,weatherlink.com 1.10,2013-09-27 15:30:00,
2013-09-27 10:45:00,76.1,66.0,29.91,South,169,2.0,14.0,72,0.00,,,0.00,weatherlink.com 1.10,2013-09-27 15:45:00,
2013-09-27 11:00:00,77.4,66.0,29.91,SE,139,1.0,16.0,68,0.00,,,0.00,weatherlink.com 1.10,2013-09-27 16:00:00,
2013-09-27 11:15:00,78.6,67.0,29.90,SSE,156,0.0,14.0,68,0.00,,,0.00,weatherlink.com 1.10,2013-09-27 16:15:00,
2013-09-27 11:30:00,79.6,67.0,29.90,SSE,157,5.0,13.0,65,0.00,,,0.00,weatherlink.com 1.10,2013-09-27 16:30:00,
2013-09-27 11:45:00,80.1,67.0,29.90,South,186,0.0,17.0,65,0.00,,,0.00,weatherlink.com 1.10,2013-09-27 16:45:00,
2013-09-27 12:00:00,80.6,66.0,29.89,SW,219,1.0,17.0,62,0.00,,,0.00,weatherlink.com 1.10,2013-09-27 17:00:00,
2013-09-27 12:15:00,81.6,67.0,29.89,SE,145,7.0,14.0,61,0.00,,,0.00,weatherlink.com 1.10,2013-09-27 17:15:00,
2013-09-27 12:30:00,81.8,67.0,29.88,SE,136,4.0,18.0,61,0.00,,,0.00,weatherlink.com 1.10,2013-09-27 17:30:00,
2013-09-27 12:45:00,82.5,67.0,29.87,SE,129,0.0,18.0,60,0.00,,,0.00,weatherlink.com 1.10,2013-09-27 17:45:00,
2013-09-27 13:00:00,83.5,67.0,29.86,SE,143,1.0,14.0,58,0.00,,,0.00,weatherlink.com 1.10,2013-09-27 18:00:00,
2013-09-27 13:15:00,83.6,67.0,29.86,SSE,156,0.0,19.0,57,0.00,,,0.00,weatherlink.com 1.10,2013-09-27 18:15:00,
2013-09-27 13:30:00,83.7,66.0,29.85,SSE,166,2.0,20.0,56,0.00,,,0.00,weatherlink.com 1.10,2013-09-27 18:30:00,
2013-09-27 13:45:00,84.2,66.0,29.85,ESE,110,0.0,14.0,55,0.00,,,0.00,weatherlink.com 1.10,2013-09-27 18:45:00,
2013-09-27 14:00:00,84.7,66.0,29.84,SE,144,2.0,14.0,53,0.00,,,0.00,weatherlink.com 1.10,2013-09-27 19:00:00,
2013-09-27 14:15:00,84.5,65.0,29.84,SSE,166,1.0,15.0,52,0.00,,,0.00,weatherlink.com 1.10,2013-09-27 19:15:00,
2013-09-27 14:30:00,84.4,64.0,29.83,SE,126,8.0,20.0,50,0.00,,,0.00,weatherlink.com 1.10,2013-09-27 19:30:00,
2013-09-27 14:45:00,84.7,63.0,29.83,SE,146,8.0,16.0,49,0.00,,,0.00,weatherlink.com 1.10,2013-09-27 19:45:00,
2013-09-27 15:00:00,84.5,63.0,29.83,SSE,148,4.0,21.0,49,0.00,,,0.00,weatherlink.com 1.10,2013-09-27 20:00:00,
2013-09-27 15:15:00,84.7,63.0,29.83,SSE,153,1.0,19.0,49,0.00,,,0.00,weatherlink.com 1.10,2013-09-27 20:15:00,
2013-09-27 15:31:00,84.7,64.0,29.82,ESE,110,11.0,13.0,50,0.00,,,0.00,weatherlink.com 1.10,2013-09-27 20:31:00,
2013-09-27 15:46:00,83.9,64.0,29.83,ESE,113,8.0,22.0,52,0.00,,,0.00,weatherlink.com 1.10,2013-09-27 20:46:00,
2013-09-27 16:01:00,83.8,64.0,29.83,SSE,157,3.0,19.0,51,0.00,,,0.00,weatherlink.com 1.10,2013-09-27 21:01:00,
2013-09-27 16:16:00,83.8,64.0,29.82,South,178,5.0,19.0,51,0.00,,,0.00,weatherlink.com 1.10,2013-09-27 21:16:00,
2013-09-27 16:31:00,83.7,64.0,29.82,SE,134,0.0,13.0,51,0.00,,,0.00,weatherlink.com 1.10,2013-09-27 21:31:00,
2013-09-27 16:46:00,83.5,64.0,29.82,SE,130,4.0,15.0,52,0.00,,,0.00,weatherlink.com 1.10,2013-09-27 21:46:00,
2013-09-27 17:01:00,83.0,65.0,29.82,ESE,122,2.0,12.0,54,0.00,,,0.00,weatherlink.com 1.10,2013-09-27 22:01:00,
2013-09-27 17:31:00,82.0,65.0,29.82,SE,130,8.0,14.0,56,0.00,,,0.00,weatherlink.com 1.10,2013-09-27 22:31:00,
2013-09-27 17:46:00,81.4,65.0,29.82,SSE,150,4.0,13.0,57,0.00,,,0.00,weatherlink.com 1.10,2013-09-27 22:46:00,
2013-09-27 18:01:00,80.9,64.0,29.82,SE,135,1.0,16.0,57,0.00,,,0.00,weatherlink.com 1.10,2013-09-27 23:01:00,
2013-09-27 18:16:00,80.3,65.0,29.82,SE,141,3.0,16.0,59,0.00,,,0.00,weatherlink.com 1.10,2013-09-27 23:16:00,
2013-09-27 18:31:00,79.6,64.0,29.82,ESE,121,0.0,14.0,59,0.00,,,0.00,weatherlink.com 1.10,2013-09-27 23:31:00,
2013-09-27 18:46:00,78.7,64.0,29.82,SE,140,0.0,14.0,61,0.00,,,0.00,weatherlink.com 1.10,2013-09-27 23:46:00,
2013-09-27 19:01:00,77.9,64.0,29.81,ESE,119,0.0,12.0,63,0.00,,,0.00,weatherlink.com 1.10,2013-09-28 00:01:00,
2013-09-27 19:16:00,76.8,64.0,29.81,ESE,122,0.0,9.0,64,0.00,,,0.00,weatherlink.com 1.10,2013-09-28 00:16:00,
2013-09-27 19:31:00,75.9,63.0,29.81,ESE,120,0.0,12.0,65,0.00,,,0.00,weatherlink.com 1.10,2013-09-28 00:31:00,
2013-09-27 19:46:00,75.1,63.0,29.82,SE,128,0.0,6.0,67,0.00,,,0.00,weatherlink.com 1.10,2013-09-28 00:46:00,
2013-09-27 20:01:00,74.1,63.0,29.81,ESE,116,0.0,9.0,69,0.00,,,0.00,weatherlink.com 1.10,2013-09-28 01:01:00,
2013-09-27 20:16:00,73.4,63.0,29.82,SE,132,4.0,11.0,70,0.00,,,0.00,weatherlink.com 1.10,2013-09-28 01:16:00,
2013-09-27 20:31:00,73.3,63.0,29.82,SE,130,0.0,9.0,70,0.00,,,0.00,weatherlink.com 1.10,2013-09-28 01:31:00,
2013-09-27 20:46:00,73.0,63.0,29.83,ESE,120,7.0,11.0,71,0.00,,,0.00,weatherlink.com 1.10,2013-09-28 01:46:00,
2013-09-27 21:16:00,72.3,62.0,29.83,ESE,122,1.0,7.0,71,0.00,,,0.00,weatherlink.com 1.10,2013-09-28 02:16:00,
2013-09-27 21:31:00,71.7,62.0,29.84,SE,130,0.0,10.0,72,0.00,,,0.00,weatherlink.com 1.10,2013-09-28 02:31:00,
2013-09-27 21:46:00,71.0,62.0,29.84,SE,128,4.0,10.0,73,0.00,,,0.00,weatherlink.com 1.10,2013-09-28 02:46:00,
2013-09-27 22:01:00,70.2,62.0,29.84,ESE,123,4.0,9.0,75,0.00,,,0.00,weatherlink.com 1.10,2013-09-28 03:01:00,
2013-09-27 22:16:00,69.6,62.0,29.84,ESE,122,0.0,9.0,76,0.00,,,0.00,weatherlink.com 1.10,2013-09-28 03:16:00,
2013-09-27 22:31:00,69.2,62.0,29.84,ESE,121,0.0,10.0,77,0.00,,,0.00,weatherlink.com 1.10,2013-09-28 03:31:00,
2013-09-27 22:46:00,68.9,62.0,29.84,SE,128,3.0,12.0,78,0.00,,,0.00,weatherlink.com 1.10,2013-09-28 03:46:00,
2013-09-27 23:01:00,68.4,62.0,29.83,ESE,118,1.0,11.0,79,0.00,,,0.00,weatherlink.com 1.10,2013-09-28 04:01:00,
2013-09-27 23:16:00,68.4,61.0,29.82,ESE,118,1.0,12.0,78,0.00,,,0.00,weatherlink.com 1.10,2013-09-28 04:16:00,
2013-09-27 23:31:00,68.3,62.0,29.82,ESE,121,0.0,10.0,79,0.00,,,0.00,weatherlink.com 1.10,2013-09-28 04:31:00,
2013-09-27 23:46:00,68.1,62.0,29.81,SE,126,8.0,9.0,80,0.00,,,0.00,weatherlink.com 1.10,2013-09-28 04:46:00,